Погода в Воронежском

Россия / Иркутская область     57°52′00″N   108°23′49″E
темп.,
°C
ветер,
м/с
пор.,
м/с
влажн.,
%
обл.,
%
осадки,
мм/ч
давл.,
гПа
погр.,
м
23 июня, ср
ср2323:00+15ссз007873 0.0 101011
02:00+13ссв118686 0.0 101110
05:00+13с118775 0.0 101125
08:00+19ссв236295 0.0 1010437
11:00+25всв234690 0.0 10081387
14:00+28всв233873 0.0 10072272
17:00+27всв3445100 0.0 1006705
20:00+24ссв265782 0.0 1006182
24 июня, чт
чт2423:00+18св227284 0.0 100620
02:00+17всв2275100 0.0 100513
05:00+17св22776 0.0 100426
08:00+25всв35485 0.0 1002483
11:00+29всв34340 0.0 10011644
14:00+32св22263 0.0 9992698
17:00+33всв352513 0.0 9963139
20:00+27ююв2543100 0.0 997153
25 июня, пт
пт2523:00+17з31288100 0.3 1001503
02:00+15юз3997100 0.4 1002303
05:00+15юз279898 2.6 1003262
08:00+16юз2596100 3.9 1004499
11:00+17зюз358787 0.3 1004648
14:00+22з345591 0.6 10041398
17:00+23зюз244672 0.0 10031692
20:00+21зюз126097 0.0 100471
26 июня, сб
сб2623:00+16ю228364 0.0 100519
02:00+14юз018946 0.0 100511
05:00+13ю00925 0.0 100610
08:00+20вюв115916 0.0 1006531
11:00+26зюз11407 0.0 10051683
14:00+29з11335 0.0 10032040
17:00+28з123141 0.0 10032152
20:00+24зюз1249100 0.0 100323
27 июня, вс
вс2723:00+17з5107188 0.0 1006381
02:00+13юз379099 0.0 1009211
05:00+13з4884100 0.0 1011503
08:00+12з1295100 0.9 1011221
11:00+17зюз1273100 0.3 1011898
14:00+21юз1250100 0.5 10101743
17:00+19ююв34606 0.0 1010447
20:00+20юв355659 0.0 1009288